K7JKM Weather Reports


Display with metric or nautical units.
time (UTC)temp
F
wind
direction
speed
MPH
gust
MPH
rain 1hr
in
rain 24hr
in
rain mn
in
humidity
%
barometer
mb
20260507141523 53 326 0.0 0.0 0.00 0.00 0.00 61 1021.1
20260507140024 53 304 0.0 0.0 0.00 0.00 0.00 61 1020.9
20260507134517 53 301 0.0 0.0 0.00 0.00 0.00 61 1020.8
20260507133013 53 301 0.0 0.0 0.00 0.00 0.00 61 1020.7
20260507131512 53 301 0.0 0.0 0.00 0.00 0.00 61 1020.8
20260507130026 53 39 0.0 0.0 0.00 0.00 0.00 62 1020.9
20260507124527 53 39 0.0 0.0 0.00 0.00 0.00 62 1020.9
20260507123026 53 34 0.0 0.0 0.00 0.00 0.00 61 1020.9
20260507121524 53 34 0.0 0.0 0.00 0.00 0.00 61 1021.0
20260507120020 53 72 0.0 0.0 0.00 0.00 0.00 61 1021.1
20260507114518 54 300 0.0 0.0 0.00 0.00 0.00 62 1021.2
20260507113014 54 300 0.0 0.0 0.00 0.00 0.00 62 1021.3
20260507111517 54 326 0.0 0.0 0.00 0.00 0.00 62 1021.3
20260507110008 54 297 0.0 0.0 0.00 0.00 0.00 64 1021.3
20260507104509 53 297 0.0 0.0 0.00 0.00 0.00 66 1021.4
20260507103004 54 297 0.0 0.0 0.00 0.00 0.00 65 1021.5
20260507101522 54 295 0.0 0.0 0.00 0.00 0.00 65 1021.5
20260507100020 54 302 0.0 0.0 0.00 0.00 0.00 65 1021.6
20260507094524 54 303 0.0 1.0 0.00 0.00 0.00 65 1021.7
20260507093021 54 265 0.0 1.0 0.00 0.00 0.00 65 1021.8
20260507091514 54 238 0.0 0.0 0.00 0.00 0.00 65 1021.9
20260507090011 54 261 0.0 1.0 0.00 0.00 0.00 65 1022.0
20260507084507 54 298 0.0 1.0 0.00 0.00 0.00 64 1022.0
20260507083026 54 243 0.0 0.0 0.00 0.00 0.00 64 1021.9
20260507081526 54 302 0.0 0.0 0.00 0.00 0.00 64 1021.9
20260507080021 54 296 0.0 1.0 0.00 0.00 0.00 64 1022.0
20260507074522 54 221 0.0 0.0 0.00 0.00 0.00 65 1021.9
20260507073016 54 221 0.0 0.0 0.00 0.00 0.00 65 1021.9
20260507071512 54 219 0.0 0.0 0.00 0.00 0.00 65 1021.8
20260507070018 54 294 0.0 0.0 0.00 0.00 0.00 65 1021.7
20260507064531 53 294 0.0 0.0 0.00 0.00 0.00 65 1021.7
20260507063026 53 295 0.0 0.0 0.00 0.00 0.00 65 1021.8
20260507061524 53 165 0.0 1.0 0.00 0.00 0.00 65 1021.8
20260507060033 53 281 0.0 1.0 0.00 0.00 0.00 65 1021.8
20260507054518 53 278 0.0 1.0 0.00 0.00 0.00 65 1021.7
20260507053017 53 289 0.0 2.0 0.00 0.00 0.00 64 1021.7
20260507051516 53 303 0.0 2.0 0.00 0.00 0.00 64 1021.7
20260507050028 53 285 0.0 3.0 0.00 0.00 0.00 64 1021.8
20260507044545 53 288 0.0 3.0 0.00 0.00 0.00 64 1021.6
20260507043026 54 189 0.0 5.0 0.00 0.00 0.00 64 1021.5
20260507041526 54 329 1.0 6.0 0.00 0.00 0.00 64 1021.5
20260507040031 54 41 0.0 6.0 0.00 0.00 0.00 63 1021.3
20260507034523 55 326 0.0 8.0 0.00 0.00 0.00 63 1021.0
20260507033004 55 299 1.0 6.0 0.00 0.00 0.00 62 1020.9
20260507031503 56 281 0.0 7.0 0.00 0.00 0.00 61 1020.7
20260507030014 57 305 1.0 7.0 0.00 0.00 0.00 60 1020.7
20260507024512 58 285 1.0 6.0 0.00 0.00 0.00 59 1020.7
20260507023009 59 155 1.0 6.0 0.00 0.00 0.00 57 1020.5
20260507021503 60 314 1.0 7.0 0.00 0.00 0.00 56 1020.6
20260507020005 61 271 2.0 6.0 0.00 0.00 0.00 55 1020.6
20260507014503 62 86 1.0 9.0 0.00 0.00 0.00 54 1020.9
20260507013019 63 312 2.0 8.0 0.00 0.00 0.00 54 1020.7
20260507011515 64 56 1.0 6.0 0.00 0.00 0.00 52 1020.7
20260507010013 65 149 1.0 10.0 0.00 0.00 0.00 51 1020.8
20260507004511 66 300 1.0 9.0 0.00 0.00 0.00 49 1020.8
20260507003005 67 327 1.0 7.0 0.00 0.00 0.00 48 1020.7
20260507001506 68 338 0.0 7.0 0.00 0.00 0.00 48 1020.6
20260507000011 67 325 0.0 9.0 0.00 0.00 0.00 49 1020.5
20260506234524 68 304 1.0 9.0 0.00 0.00 0.00 49 1020.6
20260506233022 69 60 0.0 9.0 0.00 0.00 0.00 47 1020.5
20260506231517 70 305 1.0 5.0 0.00 0.00 0.00 46 1020.5
20260506230016 70 305 0.0 6.0 0.00 0.00 0.00 46 1020.4
20260506224512 71 279 0.0 4.0 0.00 0.00 0.00 48 1020.5
20260506223009 72 329 1.0 5.0 0.00 0.00 0.00 46 1020.6
20260506221505 74 105 0.0 2.0 0.00 0.00 0.00 45 1020.5
20260506220031 73 238 0.0 2.0 0.00 0.00 0.00 45 1020.5
20260506214524 74 116 0.0 1.0 0.00 0.00 0.00 47 1020.5
20260506213022 74 312 0.0 2.0 0.00 0.00 0.00 43 1020.7
20260506211522 73 141 0.0 2.0 0.00 0.00 0.00 46 1020.7
20260506210021 72 118 0.0 2.0 0.00 0.00 0.00 45 1020.8
20260506204515 71 142 0.0 2.0 0.00 0.00 0.00 47 1020.9
20260506203011 71 145 0.0 1.0 0.00 0.00 0.00 46 1021.1
20260506201531 71 221 0.0 1.0 0.00 0.00 0.00 49 1021.1
20260506200030 70 241 0.0 3.0 0.00 0.00 0.00 48 1021.3
20260506194524 70 130 0.0 1.0 0.00 0.00 0.00 50 1021.3
20260506193024 69 226 0.0 1.0 0.00 0.00 0.00 50 1021.3
20260506191523 67 139 0.0 2.0 0.00 0.00 0.00 53 1021.3
20260506190018 65 198 0.0 2.0 0.00 0.00 0.00 56 1021.4
20260506184514 64 66 0.0 2.0 0.00 0.00 0.00 56 1021.5
20260506183028 64 223 0.0 4.0 0.00 0.00 0.00 57 1021.5
20260506181533 62 202 0.0 2.0 0.00 0.00 0.00 58 1021.7
20260506180005 61 124 0.0 3.0 0.00 0.00 0.00 59 1021.6
20260506174505 60 214 0.0 1.0 0.00 0.00 0.00 59 1021.5
20260506173004 59 120 0.0 0.0 0.00 0.00 0.00 61 1021.8
20260506171512 58 229 0.0 0.0 0.00 0.00 0.00 61 1021.9
20260506170004 58 271 0.0 0.0 0.00 0.00 0.00 62 1021.5
20260506164503 57 68 0.0 1.0 0.00 0.00 0.00 63 1021.7
20260506163008 57 198 0.0 0.0 0.00 0.00 0.00 62 1021.6
20260506161509 56 305 0.0 0.0 0.00 0.00 0.00 62 1021.6
20260506160008 56 193 0.0 1.0 0.00 0.00 0.00 62 1021.3
20260506154507 55 226 0.0 0.0 0.00 0.00 0.00 63 1021.3
20260506153003 54 323 0.0 0.0 0.00 0.00 0.00 64 1021.5
20260506151503 54 119 0.0 4.0 0.00 0.00 0.00 65 1021.7
20260506150003 54 283 0.0 2.0 0.00 0.00 0.00 66 1021.8
20260506144513 54 290 0.0 2.0 0.00 0.00 0.00 65 1021.7
20260506143017 53 148 0.0 0.0 0.00 0.00 0.00 66 1021.0